THOR ABLESTAR DEB, 530

Orbit data source: Space-Track

THOR ABLESTAR DEB, 530 is space debris in LEO originally from a launch on Thu, 29 Jun 1961 UTC launched from the Air Force Eastern Test Range (AFETR). Debris objects in space refer to the collection of defunct objects orbiting the Earth. Examples of debris include non-operational satellites, rocket bodies, and fragments generated from explosions, collisions, or faulty payload assembly.

Loading next visibility...
Identifier
530, 1961-015FU
Orbit
LEO
Country
Flag of USUS
Related business
Manufacturer
Unknown
Mission
Spacecraft
Bus & Motor
Unknown
Mass
Unknown
Launch date (UTC)
1961-06-29 (64 years ago)
Launch vehicle
Unknown
Launch site
Air Force Eastern Test Range (AFETR)
Object type
Payload
Rocket body
Debris
Shape & HBR
Unknown shape, 0.1 m
Radar Cross Section
Small (<0.1 m²)

Expand to show TLE details & history
Last TLE update: 10 hours ago

TLE from 10 hours ago
0 THOR ABLESTAR DEB
1 00530U 61015FU  25301.63395350  .00000183  00000-0  17456-3 0  9994
2 00530  66.8789 178.9653 0081807 332.0492  27.6209 13.99321492275227
Epoch: 2025-10-28T15:12Z
TLE epoch observation values (Epoch: 2025-10-28T15:12:53.582Z)
Latitude
Longitude
-86.47659°
Altitude
845.609 km
Speed
7.457 km/s
True Right ascension
11h 55m 51s
True Declination
0° 00' 00"
Sunlit
Object was in daylight at epoch
Visualization orbit readout
Latitude
Unknown
Longitude
Unknown
Altitude
Unknown
Speed
Unknown
Apparent Right ascension
Unknown
Apparent Declination
Unknown
Sunlit
N/A
Visualization observer readout
Local Sidereal Time
20:12:59
Azimuth
Unknown
Elevation
Unknown
Doppler factor
Unknown
Orbital elements
Apogee altitude
954.019 km
Perigee altitude
835.028 km
Semi-major axis
7,272.66 km
Eccentricity
0.00818
Inclination
66.8789°
RAAN
178.9653°
Arg. of periapsis
332.0492°
True anomaly
28.05948°
Mean anomaly
27.6209°
Eccentric anomaly
27.83979°
Mean motion
3.49948 °/min
Orbital period
102.87 mins
BSTAR
0.00017456

Documentation

Showing up to 5 results
|